• Join FlightAware (Why Join?)
  • Login
  • US Flag 
01:15AM EST


 

Airport Tracker/Info


-or-


 

Live Flight TrackerFlight Track Log ✈ JBU279 ✈ 29-Apr-2013 ✈ KLAS - KLGB

Flight Track Log - Related Links

Times and Time Zones

All times are in EDT time to prevent confusion due to time zone crossing. See the JBU279 flight status page for this flight to view local times or setup timezone preferences in your user account.

Time Position Orientation Groundspeed Altitude Reporting Facility
EDT Latitude Longitude Course Direction KTS MPH feet Rate Location/Type
10:09AM 36.0760 -115.1460 270° West 151 174 2,200  Level FlightAware
10:10AM 36.0770 -115.1690 273° West 173 199 3,100 2,182 Climbing FlightAware
10:10AM 36.0770 -115.1970 270° West 175 201 4,200 1,636 Climbing FlightAware
10:10AM 36.0770 -115.2250 270° West 204 235 4,600 873 Climbing FlightAware
10:11AM 36.0620 -115.2610 243° Southwest 262 302 5,000 1,067 Climbing FlightAware
10:11AM 36.0450 -115.2690 201° Southwest 279 321 5,400 2,200 Climbing FlightAware
10:11AM 36.0250 -115.2780 200° South 289 333 6,100 2,550 Climbing FlightAware
10:12AM 35.9940 -115.2910 199° South 289 333 7,100 1,636 Climbing FlightAware
10:12AM 35.9560 -115.3040 195° South 288 331 7,600 1,855 Climbing FlightAware
10:13AM 35.9210 -115.3080 185° South 295 339 8,800 2,743 Climbing FlightAware
10:14AM 35.8600 -115.3140 185° South 311 358 10,800 1,906 Climbing FlightAware
10:14AM 35.7970 -115.3090 176° South 359 413 11,500 1,482 Climbing FlightAware
10:15AM 35.7160 -115.3000 175° South 387 445 12,900 2,143 Climbing FlightAware
10:15AM 35.6750 -115.3110 192° South 389 448 14,000 2,700 Climbing FlightAware
10:16AM 35.6510 -115.3310 214° Southwest 388 447 14,700 2,400 Climbing FlightAware
10:16AM 35.6030 -115.3950 227° Southwest 399 459 16,200 2,259 Climbing FlightAware
10:17AM 35.5470 -115.4710 228° Southwest 405 466 17,900 2,118 Climbing FlightAware
10:18AM 35.4960 -115.5400 228° Southwest 414 476 19,200 1,800 Climbing FlightAware
10:18AM 35.4440 -115.6090 227° Southwest 427 491 20,300 1,835 Climbing FlightAware
10:19AM 35.3810 -115.6930 227° Southwest 433 498 21,800 1,765 Climbing FlightAware
10:20AM 35.3260 -115.7660 227° Southwest 441 507 22,800 1,553 Climbing FlightAware
10:21AM 35.2650 -115.8470 227° Southwest 437 503 24,000 847 Climbing FlightAware
10:21AM 35.2110 -115.9180 227° Southwest 439 505 24,000  Level FlightAware
10:22AM 35.1510 -115.9980 227° Southwest 440 506 24,000  Level FlightAware
10:23AM 35.0920 -116.0760 227° Southwest 438 504 24,000  Level FlightAware
10:23AM 35.0320 -116.1540 227° Southwest 436 502 24,000  Level FlightAware
10:24AM 34.9760 -116.2280 227° Southwest 436 502 24,000  Level FlightAware
10:25AM 34.9220 -116.3000 228° Southwest 438 504 24,000  Level FlightAware
10:25AM 34.8570 -116.3840 227° Southwest 440 506 24,000  Level FlightAware
10:26AM 34.7960 -116.4640 227° Southwest 440 506 24,000  Level FlightAware
10:27AM 34.7480 -116.5260 227° Southwest 440 506 24,000  Level FlightAware
10:28AM 34.6890 -116.6030 227° Southwest 440 506 24,000  Level FlightAware
10:28AM 34.6420 -116.6640 227° Southwest 440 506 24,000  Level FlightAware
10:29AM 34.5950 -116.7260 227° Southwest 440 506 24,000 -1,958 Level FlightAware
10:30AM 34.4820 -116.8480 222° Southwest 403 464 20,900 -3,183 Descending FlightAware
10:31AM 34.4010 -116.9470 225° Southwest 381 438 17,900 -2,968 Descending FlightAware
10:32AM 34.3620 -116.9950 225° Southwest 369 425 16,200 -2,894 Descending FlightAware
10:32AM 34.3040 -117.0650 225° Southwest 355 409 13,800 -2,200 Descending FlightAware
10:33AM 34.2570 -117.1200 224° Southwest 337 388 12,900 -1,500 Descending FlightAware
10:34AM 34.2090 -117.1670 219° Southwest 328 377 11,800 -1,412 Descending FlightAware
10:35AM 34.1590 -117.2170 220° Southwest 312 359 10,900 -1,271 Descending FlightAware
10:35AM 34.1140 -117.2620 220° Southwest 308 354 10,000 -771 Descending FlightAware
10:36AM 34.0820 -117.2930 219° Southwest 312 359 10,000 -100 Level FlightAware
10:36AM 34.0490 -117.3260 220° Southwest 293 337 9,900 -327 Descending FlightAware
10:37AM 34.0220 -117.3520 219° Southwest 293 337 9,700 -436 Descending FlightAware
10:37AM 33.9910 -117.3830 220° Southwest 295 339 9,500 -436 Descending FlightAware
10:38AM 33.9630 -117.4100 219° Southwest 298 343 9,300 -545 Descending FlightAware
10:38AM 33.9290 -117.4440 220° Southwest 292 336 9,000 -500 Descending FlightAware
10:39AM 33.8970 -117.4750 219° Southwest 289 333 8,800 -436 Descending FlightAware
10:39AM 33.8720 -117.5000 220° Southwest 287 330 8,600 -545 Descending FlightAware
10:39AM 33.8430 -117.5280 219° Southwest 274 315 8,300 -545 Descending FlightAware
10:40AM 33.8170 -117.5530 219° Southwest 256 295 8,100 -545 Descending FlightAware
10:40AM 33.7910 -117.5790 220° Southwest 241 277 7,800 -800 Descending FlightAware
10:41AM 33.7820 -117.5940 234° Southwest 236 272 7,500 -1,050 Descending FlightAware
10:41AM 33.7710 -117.6250 247° West 232 267 7,100 -545 Descending FlightAware
10:42AM 33.7580 -117.6600 246° West 229 264 7,000 -700 Descending FlightAware
10:42AM 33.7450 -117.6950 246° West 231 266 6,400 -1,091 Descending FlightAware
10:42AM 33.7350 -117.7240 247° West 228 262 6,000 -1,091 Descending FlightAware
10:43AM 33.7230 -117.7580 247° West 230 265 5,400 -1,309 Descending FlightAware
10:43AM 33.7110 -117.7890 245° Southwest 230 265 4,800 -1,309 Descending FlightAware
10:44AM 33.6990 -117.8250 248° West 229 264 4,200 -873 Descending FlightAware
10:44AM 33.6890 -117.8520 246° West 222 255 4,000 -300 Descending FlightAware
10:45AM 33.6830 -117.8700 248° West 220 253 4,000 -667 Level FlightAware
10:45AM 33.6710 -117.9040 247° West 215 247 3,500 -933 Descending FlightAware
10:45AM 33.6670 -117.9190 252° West 211 243 3,300 -720 Descending FlightAware
10:45AM 33.6650 -117.9300 258° West 211 243 3,200 -600 Descending FlightAware
10:46AM 33.6700 -117.9530 285° West 213 245 3,000 -267 Descending FlightAware
10:46AM 33.6810 -117.9810 295° West 211 243 3,000 -300 Level FlightAware
10:46AM 33.6880 -117.9940 303° West 204 235 2,800 -900 Descending FlightAware
10:47AM 33.7050 -118.0150 314° West 202 232 2,400 -873 Descending FlightAware
10:47AM 33.7240 -118.0380 315° West 190 219 2,000 -800 Descending FlightAware
10:48AM 33.7420 -118.0610 313° West 180 207 1,600 -436 Descending FlightAware
10:48AM 33.7560 -118.0770 316° Northwest 173 199 1,600 -436 Level FlightAware
10:49AM 33.7720 -118.0960 315° West 153 176 1,200 -873 Descending FlightAware
10:49AM 33.7850 -118.1120 314° West 147 169 800 -900 Descending FlightAware
10:49AM 33.7920 -118.1200 316° Northwest 146 168 600 -667 Descending FlightAware
10:50AM 33.8050 -118.1360 314° West 142 163 300 -667 Descending FlightAware
10:50AM 33.8130 -118.1450 317° Northwest 144 166 100 -800 Descending FlightAware